Location: Unspecified
(44.9683°N, 0.0000°E)
Time: 02:14:01
(UTC+00:00)

SR - Visible Passes

Search period start: 04 April 2026 00:00
Search period end: 14 April 2026 00:00
Orbit: 571 x 850 km, 66.7° (Epoch: 29 March)

Date Brightness Start Highest point End Pass type
(mag) Time Alt. Az. Time Alt. Az. Time Alt. Az.
4 Apr ? 00:42:10 10° NNW 00:45:33 24° NNE 00:45:33 24° NNE visible
4 Apr ? 02:23:22 10° NW 02:24:32 17° NW 02:24:32 17° NW visible
4 Apr ? 23:47:45 10° N 23:51:01 16° NE 23:51:23 16° NE visible
5 Apr ? 01:28:18 10° NNW 01:30:22 24° NNW 01:30:22 24° NNW visible
5 Apr ? 19:24:41 10° NW 19:26:14 11° NNW 19:27:50 10° N visible
5 Apr ? 22:54:32 10° NNE 22:55:07 10° NNE 22:55:42 10° NNE visible
6 Apr ? 00:33:29 10° NNW 00:36:19 26° N 00:36:19 26° N visible
6 Apr ? 02:15:01 10° NW 02:15:19 11° NW 02:15:19 11° NW visible
6 Apr ? 23:38:53 10° N 23:42:19 20° NNE 23:42:19 20° NNE visible
7 Apr ? 01:19:47 10° NNW 01:21:20 20° NNW 01:21:20 20° NNW visible
7 Apr ? 22:44:41 10° N 22:47:06 13° NNE 22:48:24 12° NE visible
8 Apr ? 00:24:50 10° NNW 00:27:24 27° N 00:27:24 27° N visible
8 Apr ? 23:30:06 10° NNW 23:33:31 25° NNE 23:33:31 25° NNE visible
9 Apr ? 01:11:20 10° NW 01:12:31 17° NW 01:12:31 17° NW visible
9 Apr ? 22:35:39 10° N 22:39:00 16° NE 22:39:40 16° NE visible
10 Apr ? 00:16:14 10° NNW 00:18:40 27° NNW 00:18:40 27° NNW visible
10 Apr ? 21:42:04 10° NNE 21:43:06 10° NNE 21:44:08 10° NE visible
10 Apr ? 23:21:23 10° NNW 23:24:50 30° NNE 23:24:50 30° NNE visible
11 Apr ? 01:02:58 10° NW 01:03:51 15° NW 01:03:51 15° NW visible
11 Apr ? 22:26:45 10° N 22:30:50 21° NE 22:31:02 21° NE visible
12 Apr ? 00:07:41 10° NNW 00:10:03 27° NNW 00:10:03 27° NNW visible
12 Apr ? 21:32:29 10° N 21:35:03 13° NNE 21:37:15 11° NE visible
12 Apr ? 23:12:42 10° NNW 23:16:16 36° N 23:16:16 36° N visible
13 Apr ? 00:54:44 10° NW 00:55:17 13° NW 00:55:17 13° NW visible
13 Apr ? 22:17:57 10° NNW 22:22:31 27° NE 22:22:31 27° NE visible
